Vorticity
17 32 -9 31 26 12 22 14 1 12 0 0 37 35 8 17 13 18 24 -6 5 6
38 36 43 2 4 5 10 46 15 38 6 13 26 28 30 20 15 23 13 -0 8 3
10 10 17 35 31 -5 31 20 19 -1 17 23 42 30 29 18 36 17 -1 -3 4 1
15 20 12 10 25 22 13 19 16 40 23 20 35 15 17 17 27 18 16 16 14 21
13 12 19 13 6 18 47 29 39 45 30 22 24 19 17 22 23 28 18 25 26 26
11 4 12 8 5 -1 13 -8 27 21 18 24 7 14 24 22 23 25 26 26 23 22
5 3 7 10 3 17 3 10 10 3 11 4 18 8 7 9 17 14 13 15 16 15
3 2 0 6 1 18 14 7 11 11 5 12 12 5 9 4 12 9 10 10 16 13
23 26 7 6 9 12 11 10 7 15 11 14 11 10 7 9 -2 3 3 9 14 11
11 9 15 19 16 13 6 8 14 7 9 12 13 19 -11 8 8 11 7 4 4 7
3 6 6 10 18 23 11 3 11 11 10 7 9 8 16 14 10 8 3 10 7 6
0 2 5 0 14 13 23 24 17 9 12 1 15 15 16 6 9 15 14 8 4 5
6 11 15 14 4 2 17 -6 9 17 10 14 16 9 26 12 1 7 3 7 6 7
10 8 9 10 7 3 3 11 4 12 15 11 5 3 23 6 9 9 5 3 3 6
Height
3008 3002 2997 2987 2997 2992 2989 2998 2996 2995 2992 2995 2997 2974 3000 3002 3005 3014 3019 3028 3034 3041
2997 2994 2992 2987 2983 2985 2980 2978 2976 2981 2986 2979 2980 2986 2981 2975 2988 2989 3001 3010 3018 3027
2990 2985 2978 2973 2976 2977 2972 2967 2968 2968 2967 2966 2963 2966 2974 2974 2983 2986 2991 2992 3004 3011
2984 2979 2973 2968 2965 2962 2962 2961 2960 2955 2958 2957 2957 2961 2968 2975 2975 2978 2983 2988 2993 2999
2980 2977 2971 2967 2963 2961 2958 2954 2956 2954 2950 2948 2952 2957 2961 2965 2969 2972 2975 2980 2984 2991
2976 2972 2968 2964 2962 2960 2952 2954 2953 2953 2946 2946 2948 2956 2957 2960 2964 2968 2972 2974 2978 2983
2971 2967 2964 2961 2960 2957 2953 2949 2954 2951 2948 2947 2948 2953 2956 2957 2960 2964 2967 2970 2972 2975
2967 2962 2959 2957 2954 2954 2951 2950 2951 2948 2945 2946 2948 2949 2951 2953 2955 2960 2963 2967 2970 2972
2958 2956 2952 2949 2949 2947 2946 2947 2947 2944 2941 2943 2947 2947 2948 2950 2952 2957 2960 2964 2967 2968
2951 2947 2945 2943 2942 2942 2942 2943 2942 2939 2939 2940 2944 2945 2944 2946 2948 2951 2953 2956 2960 2963
2943 2942 2941 2939 2936 2934 2934 2935 2937 2934 2934 2935 2939 2941 2940 2940 2943 2946 2947 2950 2952 2956
2935 2934 2934 2931 2931 2930 2929 2928 2928 2928 2930 2932 2932 2935 2935 2935 2938 2940 2941 2945 2947 2949
2925 2924 2924 2925 2924 2923 2922 2922 2921 2922 2924 2925 2923 2927 2930 2932 2933 2935 2936 2937 2940 2942
2914 2913 2913 2913 2913 2913 2913 2914 2915 2915 2916 2917 2918 2922 2925 2927 2927 2928 2929 2932 2935 2938